Location: Unspecified
(0.0000°N, 0.0000°E)
Time: 08:27:40
(UTC+00:00)

Amateur Radio Satellites - All Passes

Search period start: 05 August 2015 07:57
Search period end: 06 August 2015 07:57
Location: Unspecified, 0.0000°N, 0.0000°E

Satellite Date Start Highest point End Downlink Frequencies (MHz)
Time Altitude Azimuth
BRITE-PL 05 Aug 08:06:59 08:11:19 29° 279° (W) 08:15:50 437.365/2234.400
SRMSAT 05 Aug 08:08:12 08:13:02 26° 17° (NNE) 08:17:56 437.500
UWE-3 05 Aug 08:19:02 08:20:11 11° 99° (E) 08:21:42 435.000/436.395/437.385
BEESAT 2 05 Aug 08:26:34 08:30:31 70° 69° (ENE) 08:34:25 435.950
CINEMA 3 05 Aug 08:38:15 08:43:15 82° 103° (ESE) 08:48:18 145.822/145.860
RS-15 05 Aug 08:38:21 08:48:17 27° 245° (WSW) 08:57:29 29.354- 29.394
CUBEBUG 2 05 Aug 08:40:48 08:45:01 33° 101° (E) 08:49:18 437.445
M-CUBED/EXP-1 PRIME 05 Aug 08:43:49 08:46:38 21° 74° (ENE) 08:49:43 437.505
DELFI C3 05 Aug 08:44:22 08:46:58 17° 100° (E) 08:49:43 145.870
COMPASS 1 05 Aug 08:50:10 08:54:14 53° 281° (WNW) 08:58:18 437.405
AIST 2 05 Aug 08:51:51 08:54:44 19° 67° (ENE) 08:57:43 435.215
BEESAT 3 05 Aug 09:00:44 09:03:56 23° 247° (WSW) 09:07:02 437.485
HO-68 05 Aug 09:01:21 09:07:59 40° 283° (WNW) 09:14:32 435.675
DOVE 4 05 Aug 09:01:49 09:05:40 21° 279° (W) 09:09:24 437.250
AUBIESAT-1 05 Aug 09:08:10 09:11:40 42° 74° (ENE) 09:15:27 437.475
SEEDS 05 Aug 09:13:35 09:16:37 19° 280° (W) 09:19:28 437.485
ZACube-1 05 Aug 09:18:16 09:22:45 55° 101° (ESE) 09:27:13 437.345
AAUSAT CUBESAT 2 05 Aug 09:28:50 09:31:48 18° 280° (W) 09:34:37 437.432
HUMSAT D 05 Aug 09:29:40 09:33:03 23° 100° (E) 09:36:32 437.325/437.525
UNISAT 6 05 Aug 09:36:41 09:40:07 24° 79° (E) 09:43:39 437.425
FUNcube-1 05 Aug 09:37:48 09:42:23 81° 281° (WNW) 09:46:56 145.935
Oscar 11 05 Aug 09:43:25 09:47:21 33° 281° (W) 09:51:13 145.826/435.025
50 SAT 05 Aug 09:44:36 09:46:07 12° 100° (E) 09:47:53 437.505
JUGNU 05 Aug 09:45:38 09:51:17 47° 200° (SSW) 09:56:55 437.505
UKube-1 05 Aug 09:45:52 09:49:03 21° 101° (E) 09:52:23 .
UWE-3 05 Aug 09:52:19 09:56:36 35° 281° (W) 10:00:49 435.000/436.395/437.385
SRMSAT 05 Aug 09:56:31 10:02:24 69° 21° (NNE) 10:08:19 437.500
O/OREOS (USA 219) 05 Aug 10:01:59 10:02:38 10° 73° (ENE) 10:03:41 437.305
AISAT 05 Aug 10:13:48 10:17:44 32° 102° (ESE) 10:21:44 437.250
BUGSAT 1 05 Aug 10:14:31 10:15:38 11° 81° (E) 10:17:03 437.445
CUBEBUG 1 05 Aug 10:15:23 10:17:47 15° 100° (E) 10:20:28 437.445
POLYITAN 1 05 Aug 10:16:41 10:20:08 26° 79° (E) 10:23:40 437.675
TIGRISAT 05 Aug 10:17:17 10:21:34 87° 258° (WSW) 10:25:53 435.000
CUBEBUG 2 05 Aug 10:19:22 10:21:35 13° 280° (W) 10:23:27 437.445
DELFI C3 05 Aug 10:19:23 10:21:54 16° 280° (W) 10:24:14 145.870
DX 1 05 Aug 10:19:45 10:24:06 77° 102° (ESE) 10:28:28 434.975-435.025
M-CUBED/EXP-1 PRIME 05 Aug 10:20:06 10:21:25 11° 259° (WSW) 10:22:28 437.505
AIST 1 05 Aug 10:20:10 10:24:26 52° 95° (E) 10:28:42
ANTELSAT 05 Aug 10:21:03 10:25:19 73° 258° (WSW) 10:29:37 437.575/2403.000
AIST 2 05 Aug 10:30:41 10:33:09 15° 246° (WSW) 10:35:26 435.215
POPSAT HIP 1 05 Aug 10:31:24 10:35:21 41° 79° (E) 10:39:20 437.405
QB50P2 05 Aug 10:40:03 10:44:12 61° 79° (E) 10:48:21 145.880/145.840
YUBILEINY 05 Aug 10:43:17 10:51:49 57° 86° (E) 11:00:27 435.215
VELOX 1 05 Aug 10:50:55 10:55:20 78° 282° (WNW) 10:59:47 145.980
Cosmos 2491 05 Aug 10:51:04 10:59:51 72° 94° (E) 11:08:34 435.465 / 435.565
DUCHIFAT 1 05 Aug 10:59:22 11:03:34 74° 259° (WSW) 11:07:42 145.980
NANOSAT C BR1 05 Aug 11:05:34 11:09:42 57° 259° (WSW) 11:13:47 145.865
QB50P1 05 Aug 11:06:13 11:10:21 54° 258° (WSW) 11:14:26 145.935-145.965
HUMSAT D 05 Aug 11:06:19 11:08:39 14° 280° (W) 11:10:44 437.325/437.525
UNISAT 6 05 Aug 11:14:39 11:16:48 13° 260° (W) 11:18:41 437.425
50 SAT 05 Aug 11:17:31 11:20:33 21° 281° (W) 11:23:29 437.505
ESTCUBE 1 05 Aug 11:20:35 11:24:52 46° 281° (WNW) 11:29:10 437.505/2401.250
UKube-1 05 Aug 11:22:19 11:25:03 16° 280° (W) 11:27:34 .
JUGNU 05 Aug 11:36:28 11:40:38 20° 195° (SSW) 11:44:45 437.505
O/OREOS (USA 219) 05 Aug 11:37:51 11:42:00 33° 255° (WSW) 11:46:06 437.305
SRMSAT 05 Aug 11:46:02 11:51:39 43° 200° (SSW) 11:57:15 437.500
BUGSAT 1 05 Aug 11:47:35 11:51:01 25° 259° (W) 11:54:18 437.445
CUBEBUG 1 05 Aug 11:50:35 11:54:01 22° 280° (W) 11:57:22 437.445
AISAT 05 Aug 11:52:54 11:54:13 11° 280° (W) 11:55:10 437.250
POLYITAN 1 05 Aug 11:54:18 11:55:55 12° 260° (W) 11:57:14 437.675
TISAT 1 05 Aug 12:01:58 12:06:08 57° 102° (ESE) 12:10:19 437.305
SPROUT 05 Aug 12:08:09 12:12:23 58° 281° (W) 12:16:39 437.525
Oscar 19 05 Aug 12:09:20 12:12:04 15° 79° (E) 12:15:06 437.125/150
VERMONT LUNAR 05 Aug 12:22:21 12:25:20 45° 317° (NW) 12:28:19 437.305
Cosmos 2504 05 Aug 12:32:54 12:40:06 32° 85° (E) 12:47:23 435.465 / 435.565
YUBILEINY 05 Aug 12:43:00 12:48:38 17° 264° (W) 12:53:34 435.215
Cosmos 2491 05 Aug 12:53:07 12:56:48 12° 277° (W) 12:59:26 435.465 / 435.565
BEESAT 05 Aug 13:08:48 13:13:19 45° 102° (ESE) 13:17:53 436.000
JUGNU 05 Aug 13:29:13 13:30:31 11° 186° (S) 13:31:44 437.505
SWISSCUBE 05 Aug 13:29:50 13:34:35 82° 281° (WNW) 13:39:20 437.505
SRMSAT 05 Aug 13:37:11 13:41:14 18° 194° (SSW) 13:45:14 437.500
ITAMSAT 1 05 Aug 13:38:32 13:43:14 35° 78° (ENE) 13:48:00 435.822/435.867
CUSAT 1 05 Aug 13:42:50 13:48:13 28° 87° (E) 13:54:46 437.405
Gurwin Techsat 1B 05 Aug 13:42:51 13:47:57 48° 78° (ENE) 13:53:03 435.225
Oscar 19 05 Aug 13:46:47 13:51:20 31° 258° (WSW) 13:55:46 437.125/150
PHONESAT 2.4 05 Aug 13:50:14 13:53:39 66° 137° (SE) 13:57:05 2401.200-2431.200
ITUPSAT 1 05 Aug 13:53:19 13:57:52 45° 281° (WNW) 14:02:24 437.325
DANDE 05 Aug 13:55:53 14:00:32 23° 88° (E) 14:06:23 436.750
KKS-1 05 Aug 14:23:29 14:27:45 46° 102° (ESE) 14:32:05 437.445
Cosmos 2504 05 Aug 14:24:37 14:32:10 33° 266° (W) 14:39:17 435.465 / 435.565
JAS-2 05 Aug 14:31:07 14:36:21 45° 77° (ENE) 14:42:13 435.910
AO-7 05 Aug 14:52:26 14:59:47 36° 75° (ENE) 15:07:19 29.400- 29.500
ITAMSAT 1 05 Aug 15:19:48 15:22:39 14° 259° (W) 15:25:08 435.822/435.867
JUGNU 05 Aug 15:20:37 15:20:40 10° 176° (S) 15:20:47 437.505
STARS 05 Aug 15:21:13 15:25:31 50° 282° (WNW) 15:29:50 437.465
CUSAT 1 05 Aug 15:24:45 15:30:37 32° 260° (W) 15:37:18 437.405
Gurwin Techsat 1B 05 Aug 15:26:56 15:27:52 10° 260° (W) 15:28:17 435.225
GONETS M04 05 Aug 15:28:25 15:33:31 18° 84° (E) 15:39:20
SRMSAT 05 Aug 15:30:03 15:31:21 11° 185° (S) 15:32:35 437.500
DANDE 05 Aug 15:37:43 15:43:23 35° 260° (W) 15:50:12 436.750
HORYU 2 05 Aug 15:43:09 15:47:35 70° 259° (WSW) 15:52:00 437.375
MOZHAYETS 4 05 Aug 15:47:42 15:52:02 44° 101° (E) 15:56:24
ISS 05 Aug 16:16:13 16:19:27 67° 305° (NW) 16:22:40 145.825
JAS-2 05 Aug 16:19:29 16:21:40 12° 262° (W) 16:23:24 435.910
AO-7 05 Aug 16:45:16 16:52:27 31° 255° (WSW) 16:59:20 29.400- 29.500
JUGNU 05 Aug 17:06:53 17:10:38 17° 166° (SSE) 17:14:28 437.505
CUTE-I 05 Aug 17:19:58 17:24:28 29° 79° (ENE) 17:29:05 437.470
SRMSAT 05 Aug 17:20:18 17:21:42 11° 175° (S) 17:23:10 437.500
GONETS M04 05 Aug 17:21:48 17:30:19 55° 266° (W) 17:38:50
Cosmos 2499 05 Aug 17:42:48 17:50:50 41° 85° (E) 17:58:42 435.465 / 435.565
CUBESAT XI-V 05 Aug 17:54:37 17:59:13 81° 281° (WNW) 18:03:50 437.345
Cubesat XI-IV 05 Aug 18:04:35 18:09:59 82° 257° (WSW) 18:15:22 437.490
RS-15 05 Aug 18:07:41 18:17:53 46° 113° (ESE) 18:28:09 29.354- 29.394
PCSat 05 Aug 18:13:29 18:18:53 86° 74° (ENE) 18:24:18 145.827
PRISM 05 Aug 18:32:27 18:36:21 46° 102° (ESE) 18:40:17 437.425
SO-50 05 Aug 18:33:35 18:38:05 42° 248° (WSW) 18:42:25 436.795
STRAND 1 05 Aug 18:41:47 18:46:52 83° 101° (ESE) 18:51:59 437.568
GOMX 1 05 Aug 18:46:37 18:46:43 10° 82° (E) 18:47:11 467.674
JUGNU 05 Aug 18:54:35 19:00:05 40° 160° (SSE) 19:05:40 437.505
BRITE-PL 05 Aug 18:56:32 19:00:48 34° 81° (E) 19:04:50 437.365/2234.400
CUTE-I 05 Aug 19:00:39 19:04:26 19° 259° (WSW) 19:07:57 437.470
HO-68 05 Aug 19:07:34 19:11:58 18° 77° (ENE) 19:16:49 435.675
SRMSAT 05 Aug 19:07:40 19:11:48 19° 166° (SSE) 19:16:01 437.500
BEESAT 3 05 Aug 19:18:28 19:20:07 13° 114° (ESE) 19:22:01 437.485
Cosmos 2499 05 Aug 19:36:47 19:43:50 26° 265° (W) 19:50:16 435.465 / 435.565
SEEDS 05 Aug 19:43:39 19:46:41 20° 80° (E) 19:49:53 437.485
DOVE 4 05 Aug 19:45:26 19:49:26 39° 80° (E) 19:53:20 437.250
CUTE 1.7 + AOD 2 05 Aug 19:53:38 19:57:34 38° 79° (E) 20:01:32 437.475
AAUSAT CUBESAT 2 05 Aug 19:57:44 20:00:36 19° 80° (E) 20:03:39 437.432
CANX-2 05 Aug 20:02:32 20:06:44 61° 79° (E) 20:10:56 2200.000
Oscar 11 05 Aug 20:18:19 20:20:09 13° 80° (E) 20:22:17 145.826/435.025
GOMX 1 05 Aug 20:20:53 20:24:53 30° 258° (WSW) 20:28:37 467.674
RS-15 05 Aug 20:20:58 20:30:08 29° 294° (WNW) 20:38:50 29.354- 29.394
BEESAT 2 05 Aug 20:21:16 20:25:17 79° 113° (ESE) 20:29:21 435.950
UWE-3 05 Aug 20:29:41 20:31:35 13° 80° (E) 20:33:46 435.000/436.395/437.385
BRITE-PL 05 Aug 20:38:07 20:39:08 10° 258° (WSW) 20:39:44 437.365/2234.400
JUGNU 05 Aug 20:43:15 20:49:12 76° 338° (NNW) 20:55:12 437.505
DELFI C3 05 Aug 20:44:31 20:47:12 18° 80° (E) 20:50:03 145.870
M-CUBED/EXP-1 PRIME 05 Aug 20:45:31 20:49:06 26° 103° (ESE) 20:52:35 437.505
AIST 2 05 Aug 20:49:59 20:53:23 25° 113° (ESE) 20:56:54 435.215
HO-68 05 Aug 20:52:47 20:59:37 47° 256° (WSW) 21:06:20 435.675
CUBEBUG 2 05 Aug 20:53:43 20:57:39 44° 79° (E) 21:01:38 437.445
BEESAT 3 05 Aug 20:54:43 20:57:56 22° 293° (WNW) 21:01:04 437.485
COMPASS 1 05 Aug 20:54:59 20:59:00 45° 259° (W) 21:03:01 437.405
SRMSAT 05 Aug 20:55:42 21:01:24 45° 160° (SSE) 21:07:08 437.500
CINEMA 3 05 Aug 20:55:53 20:59:59 55° 259° (WSW) 21:04:01 145.822/145.860
AUBIESAT-1 05 Aug 21:09:27 21:13:37 46° 104° (ESE) 21:17:31 437.475
SEEDS 05 Aug 21:19:43 21:22:21 16° 260° (W) 21:24:46 437.485
YUBILEINY 05 Aug 21:28:01 21:28:23 10° 97° (E) 21:29:56 435.215
ZACube-1 05 Aug 21:28:39 21:32:47 76° 79° (E) 21:36:58 437.345
Cosmos 2491 05 Aug 21:32:31 21:36:34 15° 84° (E) 21:41:29 435.465 / 435.565
AAUSAT CUBESAT 2 05 Aug 21:33:22 21:36:05 16° 260° (W) 21:38:36 437.432
HUMSAT D 05 Aug 21:34:57 21:38:23 26° 79° (E) 21:41:54 437.325/437.525
50 SAT 05 Aug 21:41:59 21:42:32 10° 80° (E) 21:43:23 437.505
FUNcube-1 05 Aug 21:48:06 21:52:10 55° 259° (W) 21:56:15 145.935
UNISAT 6 05 Aug 21:49:27 21:53:49 40° 101° (E) 21:58:11 437.425
Oscar 11 05 Aug 21:52:38 21:56:14 25° 260° (W) 21:59:44 145.826/435.025
UKube-1 05 Aug 21:54:24 21:58:04 28° 79° (E) 22:01:47 .
ESTCUBE 1 05 Aug 22:00:51 22:02:32 12° 80° (E) 22:04:33 437.505/2401.250
UWE-3 05 Aug 22:04:46 22:08:01 22° 260° (W) 22:11:09 435.000/436.395/437.385
O/OREOS (USA 219) 05 Aug 22:10:53 22:13:46 18° 106° (ESE) 22:16:51 437.305
BUGSAT 1 05 Aug 22:17:04 22:18:59 13° 100° (E) 22:21:10 437.445
DELFI C3 05 Aug 22:19:34 22:22:08 16° 260° (W) 22:24:31 145.870
M-CUBED/EXP-1 PRIME 05 Aug 22:21:22 22:23:42 14° 286° (WNW) 22:25:42 437.505
POLYITAN 1 05 Aug 22:23:03 22:26:54 33° 101° (E) 22:30:49 437.675
CUBEBUG 1 05 Aug 22:25:05 22:28:21 21° 80° (E) 22:31:42 437.445
AISAT 05 Aug 22:25:49 22:30:04 47° 79° (ENE) 22:34:18 437.250
AIST 1 05 Aug 22:26:49 22:31:03 76° 86° (E) 22:35:21
DX 1 05 Aug 22:29:39 22:34:02 76° 258° (WSW) 22:38:21 434.975-435.025
AIST 2 05 Aug 22:29:47 22:31:51 13° 294° (WNW) 22:33:40 435.215
TIGRISAT 05 Aug 22:30:24 22:35:00 57° 281° (WNW) 22:39:33 435.000
JUGNU 05 Aug 22:33:18 22:38:25 29° 342° (NNW) 22:43:30 437.505
ANTELSAT 05 Aug 22:34:31 22:39:01 47° 281° (WNW) 22:43:28 437.575/2403.000
POPSAT HIP 1 05 Aug 22:37:40 22:41:51 53° 101° (ESE) 22:46:05 437.405
SRMSAT 05 Aug 22:44:41 22:50:40 67° 339° (NNW) 22:56:38 437.500
QB50P2 05 Aug 22:46:34 22:50:51 78° 103° (ESE) 22:55:10 145.880/145.840
VELOX 1 05 Aug 23:03:09 23:07:29 51° 259° (WSW) 23:11:45 145.980
DUCHIFAT 1 05 Aug 23:05:19 23:09:32 60° 281° (W) 23:13:45 145.980
NANOSAT C BR1 05 Aug 23:11:46 23:15:53 46° 281° (W) 23:20:00 145.865
QB50P1 05 Aug 23:12:41 23:16:46 44° 281° (W) 23:20:52 145.935-145.965
HUMSAT D 05 Aug 23:12:59 23:14:01 11° 261° (W) 23:14:44 437.325/437.525
50 SAT 05 Aug 23:13:51 23:16:59 23° 260° (W) 23:20:02 437.505
YUBILEINY 05 Aug 23:16:41 23:25:24 78° 274° (W) 23:34:05 435.215
Cosmos 2491 05 Aug 23:24:52 23:33:27 62° 266° (W) 23:42:03 435.465 / 435.565
UKube-1 05 Aug 23:32:19 23:34:04 12° 260° (W) 23:35:29 .
ESTCUBE 1 05 Aug 23:35:18 23:39:18 30° 259° (W) 23:43:12 437.505/2401.250
O/OREOS (USA 219) 05 Aug 23:49:51 23:53:05 19° 286° (WNW) 23:56:08 437.305
VERMONT LUNAR 05 Aug 23:50:48 23:53:54 87° 223° (SW) 23:57:00 437.305
BUGSAT 1 05 Aug 23:50:56 23:54:18 23° 280° (W) 23:57:37 437.445
CUBEBUG 1 06 Aug 00:01:45 00:04:33 16° 259° (W) 00:07:09 437.445
TISAT 1 06 Aug 00:07:54 00:12:05 71° 79° (ENE) 00:16:14 437.305
SPROUT 06 Aug 00:16:32 00:20:37 43° 259° (WSW) 00:24:39 437.525
JUGNU 06 Aug 00:25:05 00:28:06 14° 350° (N) 00:31:02 437.505
SRMSAT 06 Aug 00:35:08 00:40:05 26° 343° (NNW) 00:44:57 437.500
Cosmos 2504 06 Aug 00:37:29 00:43:17 30° 94° (E) 00:49:27 435.465 / 435.565
ITUPSAT 1 06 Aug 00:39:29 00:42:37 18° 79° (E) 00:45:58 437.325
Oscar 19 06 Aug 00:41:02 00:45:50 40° 102° (ESE) 00:50:42 437.125/150
PHONESAT 2.4 06 Aug 01:27:54 01:31:16 49° 43° (NE) 01:34:37 2401.200-2431.200
BEESAT 06 Aug 01:30:38 01:35:26 89° 257° (WSW) 01:40:14 436.000
SWISSCUBE 06 Aug 01:52:15 01:56:48 41° 258° (WSW) 02:01:17 437.505
JAS-2 06 Aug 02:04:29 02:10:40 30° 100° (E) 02:16:33 435.910
ITAMSAT 1 06 Aug 02:13:03 02:18:12 86° 286° (WNW) 02:23:25 435.822/435.867
ITUPSAT 1 06 Aug 02:16:30 02:20:24 24° 259° (W) 02:24:08 437.325
Gurwin Techsat 1B 06 Aug 02:21:13 02:26:25 59° 282° (WNW) 02:31:38 435.225
Oscar 19 06 Aug 02:22:53 02:25:07 12° 280° (W) 02:26:56 437.125/150
SRMSAT 06 Aug 02:27:21 02:29:58 13° 351° (N) 02:32:29 437.500
CUSAT 1 06 Aug 02:29:36 02:33:34 76° 98° (E) 02:36:39 437.405
Cosmos 2504 06 Aug 02:29:51 02:35:22 24° 276° (W) 02:40:43 435.465 / 435.565
KKS-1 06 Aug 02:36:06 02:40:31 71° 79° (E) 02:44:54 437.445
DANDE 06 Aug 02:46:14 02:50:55 73° 96° (E) 02:54:23 436.750
AO-7 06 Aug 03:18:08 03:26:12 59° 105° (ESE) 03:34:19 29.400- 29.500
STARS 06 Aug 03:32:50 03:36:49 34° 259° (WSW) 03:40:45 437.465
JAS-2 06 Aug 03:49:04 03:55:34 31° 283° (WNW) 04:01:23 435.910
ISS 06 Aug 03:49:41 03:52:55 66° 55° (NE) 03:56:08 145.825
HORYU 2 06 Aug 03:56:01 04:00:19 46° 282° (WNW) 04:04:36 437.375
GONETS M04 06 Aug 03:59:46 04:07:33 38° 95° (E) 04:15:28
MOZHAYETS 4 06 Aug 04:04:18 04:08:55 77° 79° (ENE) 04:13:32
JUGNU 06 Aug 04:05:43 04:08:21 13° 9° (N) 04:11:04 437.505
Cubesat XI-IV 06 Aug 05:06:01 05:09:34 19° 101° (E) 05:13:23 437.490
SO-50 06 Aug 05:07:24 05:10:11 17° 113° (ESE) 05:13:14 436.795
PCSat 06 Aug 05:08:26 05:11:50 18° 112° (ESE) 05:15:30 145.827
AO-7 06 Aug 05:13:35 05:18:56 18° 284° (WNW) 05:23:39 29.400- 29.500
STRAND 1 06 Aug 05:38:38 05:40:30 12° 80° (E) 05:42:47 437.568
RS-15 06 Aug 05:48:40 05:59:35 41° 67° (ENE) 06:10:55 29.354- 29.394
Cosmos 2499 06 Aug 05:52:56 05:59:39 47° 94° (E) 06:06:46 435.465 / 435.565
JUGNU 06 Aug 05:53:10 05:58:04 27° 17° (NNE) 06:02:59 437.505
GONETS M04 06 Aug 05:57:04 06:04:17 27° 275° (W) 06:11:03
CUTE-I 06 Aug 05:58:33 06:03:50 84° 100° (E) 06:09:11 437.470
SRMSAT 06 Aug 06:07:35 06:10:30 14° 11° (N) 06:13:30 437.500
CUBESAT XI-V 06 Aug 06:13:19 06:17:50 45° 259° (W) 06:22:17 437.345
PRISM 06 Aug 06:35:51 06:39:57 53° 79° (ENE) 06:44:03 437.425
Cubesat XI-IV 06 Aug 06:45:05 06:49:34 27° 281° (WNW) 06:53:57 437.490
SO-50 06 Aug 06:46:55 06:50:35 23° 294° (WNW) 06:54:12 436.795
PCSat 06 Aug 06:50:25 06:55:09 30° 291° (WNW) 06:59:47 145.827
HO-68 06 Aug 06:59:54 07:03:27 15° 103° (ESE) 07:07:34 435.675
GOMX 1 06 Aug 07:05:34 07:09:50 27° 101° (ESE) 07:14:26 467.674
BEESAT 3 06 Aug 07:12:28 07:14:16 13° 66° (ENE) 07:16:17 437.485
STRAND 1 06 Aug 07:14:49 07:19:38 39° 258° (WSW) 07:24:22 437.568
BRITE-PL 06 Aug 07:21:18 07:26:21 81° 101° (E) 07:31:49 437.365/2234.400
CINEMA 3 06 Aug 07:37:21 07:39:19 13° 100° (E) 07:41:40 145.822/145.860
JUGNU 06 Aug 07:41:24 07:47:17 70° 21° (NNE) 07:53:09 437.505
Cosmos 2499 06 Aug 07:48:33 07:52:51 16° 278° (W) 07:56:40 435.465 / 435.565
SEEDS 06 Aug 07:49:05 07:52:26 24° 100° (E) 07:55:52 437.485
